Regional Weather Roundup
Issued by NWS New Orleans/Baton Rouge, LA

Home | Current Version | Previous Version | Graphics & Text | Print | Product List | Glossary On
Versions: 1 2 3 4 5 6 7 8 9 10 11 12 13 14 15 16 17 18 19 20 21 22 23 24 25 26 27 28 29 30 31 32 33 34 35 36 37 38 39 40 41 42 43 44 45 46 47 48 49 50
984
ASUS44 KLIX 200010
RWRLIX
NEW ORLEANS REGIONAL WEATHER ROUNDUP
NATIONAL WEATHER SERVICE NEW ORLEANS LA
700 PM CDT FRI SEP 19 2014

NOTE: "FAIR" INDICATES FEW OR NO CLOUDS BELOW 12,000 FEET WITH NO
      SIGNIFICANT WEATHER AND/OR OBSTRUCTIONS TO VISIBILITY.
      SKY/WX - SKY CONDITION AND SIGNIFICANT WEATHER.
      TMP - AIR TEMPERATURE.     DP    - DEWPOINT TEMPERATURE.
      RH  - RELATIVE HUMIDITY.   PRES  - PRESSURE.
      HI  - HEAT INDEX.          WCI   - WIND CHILL INDEX.

*  THESE STATIONS ARE NOT NWS OR FAA STATIONS AND ARE NOT UNDER
   NWS QUALITY CONTROL.

LAZ038-040-048-061>063-065>067-069-200100-
SOUTHEAST LOUISIANA

CITY           SKY/WX    TMP DP  RH WIND       PRES   REMARKS
N.O. AUDUBON     N/A     81  69  66 MISG        N/A
6HR MIN TEMP:  80; 6HR MAX TEMP:  88;

N.O. INTL ARPT PTCLDY    82  67  60 E13       29.93R
6HR MIN TEMP:  82; 6HR MAX TEMP:  89;

N.O. LAKEFRONT CLEAR     81  69  67 E13       29.94R
6HR MIN TEMP:  81; 6HR MAX TEMP:  87; 6HR PCP: TRACE;

N.O. DOWNTOWN*   N/A     82  64  54 E3        29.94R
6HR MIN TEMP:  81; 6HR MAX TEMP:  88;

SLIDELL        PTCLDY    80  71  74 E5        29.94R
6HR MIN TEMP:  80; 6HR MAX TEMP:  88;

BATON ROUGE    MOCLDY    77  72  84 E5        29.94R
6HR MIN TEMP:  77; 6HR MAX TEMP:  88; 6HR PCP:  0.09;

BOOTHVILLE     CLOUDY    81  70  69 E13       29.93R
6HR MIN TEMP:  74; 6HR MAX TEMP:  82; 6HR PCP:  0.01;

BELLE CHASSE   MOCLDY    81  69  67 E6        29.93R
6HR MIN TEMP:  79; 6HR MAX TEMP:  87; 6HR PCP:  0.01;

BOGALUSA*        N/A     81  69  67 CALM      29.96R
6HR MIN TEMP:  81; 6HR MAX TEMP:  89;

GALLIANO*      NOT AVBL
NEW ROADS*       N/A     82  71  69 E5        29.93R
6HR MIN TEMP:  82; 6HR MAX TEMP:  88;

GONZALES*        N/A     81  75  82 E5        29.93R
6HR MIN TEMP:  81; 6HR MAX TEMP:  87;

HAMMOND*       MOCLDY    79  72  78 CALM      29.96R
HOUMA*         PTCLDY    79  61  53 E7        29.93R
PORT FOURCHON* CLOUDY    81  70  69 E15G24    29.94S

$$

MSZ070-080>082-200100-
SOUTHERN MISSISSIPPI

CITY           SKY/WX    TMP DP  RH WIND       PRES   REMARKS
MCCOMB         CLEAR     79  71  76 SE5       29.96R
6HR MIN TEMP:  79; 6HR MAX TEMP:  88;

GULFPORT       CLEAR     81  68  64 SE12      29.93S
6HR MIN TEMP:  81; 6HR MAX TEMP:  87;

BILOXI         CLEAR     81  69  65 SE10      29.94R
6HR MIN TEMP:  81; 6HR MAX TEMP:  89;

PASCAGOULA     CLEAR     78  71  79 SE5       29.94S
6HR MIN TEMP:  78; 6HR MAX TEMP:  87;

STENNIS ARPT*  CLEAR     81  66  61 CALM      29.94S

$$

COASTAL OBSERVATIONS
LAKE AND NEARSHORE STATIONS

STATION/POSITION TIME  TEMP    WIND        PRES    WAVE
                       AIR SEA DIR/SP/G            HT/PER
                 (UTC) (F)     (DEG/KT/KT) (MB)    (FT/S)
PASCAGOULA       0000   81     120/  9/ 14 1013.5
WAVELAND YACHT   0000   82     120/ 12/ 15 1013.1
GRAND ISLE       0000   81 84   90/ 14/ 18 1013.6
SOUTHWEST PASS   0000   81 90   80/ 20/ 23 1012.8
NEW CANAL        0000   81 82   80/  7/ 11 1014.1
SHELL BEACH      0000   81 79   80/ 14/ 16 1013.4

OFFSHORE STATIONS

STATION/POSITION TIME  TEMP    WIND        PRES    WAVE
                       AIR SEA DIR/SP/G            HT/PER
                 (UTC) (F)     (DEG/KT/KT) (MB)    (FT/S)
64 S DAUPHIN ISL 2249   81 84   90/ 21/ 25 1012.9    6/ 7

$$




USA.gov is the U.S. government's official web portal to all federal, state and local government web resources and services.